EW9081 Weather Reports


time (UTC)temp
F
wind
direction
speed
knots
gust
knots
rain 1hr
in
rain 24hr
in
rain mn
in
humidity
%
barometer
mb
20260904091054 54 5 0.0 1.7 0.08 0.75 0.08 94 1009.3
20260904090558 54 5 0.0 1.7 0.07 0.74 0.07 94 1009.2
20260904090553 54 0 0.0 1.7 0.08 0.75 0.08 95 1009.2
20260904085559 54 9 0.0 1.7 0.05 0.72 0.05 94 1009.2
20260904085554 54 9 0.0 1.7 0.06 0.73 0.06 94 1009.2
20260904085055 54 5 0.0 1.7 0.06 0.73 0.06 94 1009.2
20260904084707 54 5 0.0 1.7 0.03 0.70 0.03 94 1009.3
20260904084054 54 5 0.0 1.7 0.04 0.71 0.04 94 1009.3
20260904083053 54 5 0.0 1.7 0.02 0.70 0.02 94 1009.4
20260904082553 54 5 0.0 1.7 0.01 0.69 0.01 94 1009.3
20260904082051 54 355 0.0 1.7 0.00 0.68 0.01 94 1009.4
20260904081556 53 32 0.0 2.6 0.00 0.68 0.00 94 1009.3
20260904081551 53 347 0.0 2.6 0.00 0.68 0.00 94 1009.3
20260904080552 53 180 0.0 1.7 0.00 0.68 0.00 94 1009.4
20260904080050 53 180 0.0 1.7 0.00 0.68 0.00 94 1009.4
20260904075555 54 180 0.0 1.7 0.00 0.68 0.00 94 1009.4
20260904075551 54 180 0.0 1.7 0.00 0.68 0.00 94 1009.4
20260904074549 54 180 0.0 1.7 0.00 0.68 0.00 94 1009.3
20260904074048 54 180 0.0 1.7 0.00 0.68 0.00 94 1009.3
20260904073549 54 180 0.0 1.7 0.00 0.68 0.00 94 1009.3
20260904073049 54 60 0.0 1.7 0.00 0.68 0.00 94 1009.2
20260904072549 54 60 0.0 1.7 0.00 0.68 0.00 94 1009.2
20260904072050 54 60 0.0 1.7 0.00 0.68 0.00 94 1009.2
20260904071549 54 60 0.0 1.7 0.00 0.68 0.00 94 1009.3
20260904071048 54 9 0.0 1.7 0.00 0.68 0.00 94 1009.2
20260904070552 54 5 0.0 1.7 0.00 0.68 0.00 94 1009.1
20260904070548 54 41 0.0 1.7 0.00 0.68 0.00 94 1009.1
20260904065547 54 41 0.0 2.6 0.00 0.68 0.68 94 1009.2
20260904065048 54 37 0.0 2.6 0.00 0.68 0.68 94 1009.1
20260904064547 54 37 0.0 2.6 0.00 0.68 0.68 94 1009.1
20260904064047 54 37 0.0 2.6 0.00 0.68 0.68 94 1009.1
20260904063548 54 136 0.0 1.7 0.00 0.68 0.68 94 1009.2
20260904063047 54 136 0.0 1.7 0.00 0.68 0.68 94 1009.2
20260904062547 54 136 0.0 1.7 0.00 0.68 0.68 94 1009.2
20260904062051 54 136 0.0 1.7 0.00 0.68 0.68 94 1009.2
20260904062045 54 136 0.0 1.7 0.00 0.68 0.68 94 1009.2
20260904061045 54 136 0.0 1.7 0.00 0.68 0.68 94 1009.2
20260904060545 54 137 0.0 1.7 0.00 0.68 0.68 94 1009.2
20260904060045 54 137 0.0 1.7 0.00 0.68 0.68 94 1009.3
20260904055545 54 138 0.0 0.0 0.00 0.68 0.68 94 1009.3
20260904055045 54 138 0.0 0.0 0.00 0.68 0.68 94 1009.3
20260904054544 54 138 0.0 0.0 0.00 0.68 0.68 94 1009.3
20260904054044 54 138 0.0 0.0 0.01 0.68 0.68 93 1009.3
20260904053549 54 138 0.0 1.7 0.02 0.68 0.68 93 1009.3
20260904053543 54 138 0.0 1.7 0.01 0.68 0.68 93 1009.3
20260904052543 54 138 0.0 1.7 0.02 0.68 0.68 94 1009.3
20260904052043 54 138 0.0 1.7 0.03 0.68 0.68 94 1009.3
20260904051543 54 91 0.0 1.7 0.03 0.68 0.68 94 1009.3
20260904051043 54 91 0.0 1.7 0.04 0.68 0.68 94 1009.4
20260904050544 54 90 0.0 1.7 0.04 0.68 0.68 94 1009.4
20260904050040 54 90 0.0 1.7 0.04 0.68 0.68 94 1009.4
20260904045540 54 90 0.0 1.7 0.04 0.68 0.68 94 1009.3
20260904045039 54 90 0.0 1.7 0.05 0.68 0.68 94 1009.3
20260904044539 54 92 0.0 1.7 0.05 0.68 0.68 93 1009.3
20260904044044 55 92 0.0 1.7 0.04 0.67 0.67 93 1009.3
20260904044039 55 92 0.0 1.7 0.04 0.67 0.67 93 1009.3
20260904043040 55 92 0.0 3.5 0.03 0.66 0.66 93 1009.3
20260904042539 55 80 0.0 3.5 0.04 0.66 0.66 93 1009.3
20260904042039 55 166 0.0 4.3 0.03 0.65 0.65 93 1009.2
20260904041540 55 165 0.0 4.3 0.04 0.65 0.65 93 1009.2
20260904041044 55 165 0.0 4.3 0.03 0.64 0.64 93 1009.2
20260904041039 55 165 0.0 4.3 0.03 0.64 0.64 93 1009.2
20260904040039 55 140 0.0 4.3 0.03 0.64 0.64 93 1009.2
20260904035537 55 183 0.9 2.6 0.03 0.64 0.64 93 1009.2
20260904035038 55 176 0.9 2.6 0.02 0.63 0.63 93 1009.1
20260904034537 55 172 0.9 3.5 0.02 0.63 0.63 93 1009.1
20260904034037 55 167 0.9 5.2 0.02 0.63 0.63 93 1009.0
20260904033537 55 173 0.0 5.2 0.02 0.63 0.63 93 1009.0
20260904033039 55 173 0.0 2.6 0.02 0.63 0.63 93 1008.9
20260904032537 55 165 0.0 2.6 0.01 0.62 0.62 93 1008.9
20260904032037 55 175 0.0 2.6 0.01 0.62 0.62 92 1008.8
20260904031537 55 174 0.9 2.6 0.00 0.61 0.61 92 1008.8
20260904031040 55 171 0.0 3.5 0.00 0.61 0.61 92 1008.8
20260904031035 55 178 0.9 3.5 0.00 0.61 0.61 92 1008.8
20260904030035 55 175 0.0 2.6 0.00 0.61 0.61 92 1008.8
20260904025535 55 178 0.0 1.7 0.00 0.61 0.61 92 1008.8
20260904025034 55 159 0.0 2.6 0.00 0.61 0.61 92 1008.8
20260904024532 55 158 0.0 3.5 0.01 0.61 0.61 92 1008.8
20260904024033 55 183 0.0 3.5 0.01 0.61 0.61 92 1008.8
20260904023533 55 158 0.0 1.7 0.01 0.61 0.61 92 1008.8
20260904023036 56 161 0.0 3.5 0.02 0.61 0.61 92 1008.8
20260904023032 55 138 0.0 3.5 0.01 0.61 0.61 92 1008.8
20260904022646 56 161 0.9 3.5 0.04 0.61 0.61 92 1008.8
20260904021530 56 185 0.9 3.5 0.05 0.61 0.61 92 1008.8
20260904021030 56 166 0.0 3.5 0.06 0.61 0.61 92 1008.7
20260904020528 56 144 0.9 3.5 0.06 0.61 0.61 91 1008.7
20260904020027 56 175 0.9 3.5 0.06 0.61 0.61 91 1008.7
20260904015525 56 163 0.9 4.3 0.06 0.61 0.61 91 1008.7
20260904015030 56 179 0.9 4.3 0.05 0.60 0.61 92 1008.8
20260904015025 56 149 0.9 4.3 0.06 0.61 0.61 92 1008.7
20260904014025 56 159 0.9 3.5 0.05 0.60 0.60 91 1008.8
20260904013524 56 180 0.9 3.5 0.05 0.60 0.60 91 1008.6
20260904013022 56 166 0.9 4.3 0.05 0.60 0.60 90 1008.7
20260904012524 57 121 1.7 4.3 0.04 0.59 0.59 90 1008.6
20260904012022 57 182 0.9 4.3 0.02 0.57 0.57 89 1008.6
20260904011522 57 132 1.7 7.0 0.01 0.56 0.56 89 1008.6
20260904011022 58 180 1.7 7.0 0.01 0.55 0.55 89 1008.6
20260904010528 58 157 0.9 3.5 0.03 0.55 0.55 90 1008.5
20260904010522 58 182 0.9 7.0 0.01 0.55 0.55 89 1008.5
20260904010022 58 169 0.9 7.0 0.02 0.55 0.55 89 1008.5
20260904005029 58 129 0.0 1.7 0.05 0.55 0.55 90 1008.6
20260904005022 58 178 0.9 3.5 0.03 0.55 0.55 90 1008.6
20260904004523 58 169 0.0 2.6 0.04 0.55 0.55 90 1008.6
20260904004023 58 189 0.0 2.6 0.04 0.55 0.55 90 1008.6
20260904003028 58 128 0.0 1.7 0.05 0.55 0.55 91 1008.7
20260904003023 58 128 0.0 1.7 0.05 0.55 0.55 90 1008.6
20260904002022 57 128 0.0 1.7 0.05 0.55 0.55 90 1008.8
20260904001523 57 127 0.0 1.7 0.05 0.55 0.55 89 1008.7
20260904001024 57 127 0.0 1.7 0.04 0.54 0.55 89 1008.8
20260904000523 57 127 0.0 1.7 0.04 0.54 0.54 89 1008.8
20260904000023 57 127 0.0 1.7 0.03 0.53 0.53 88 1008.8
20260903235522 58 127 0.0 1.7 0.02 0.52 0.52 89 1008.9
20260903235022 58 117 0.0 1.7 0.02 0.52 0.52 88 1008.9
20260903234523 58 172 0.0 2.6 0.01 0.51 0.51 88 1008.9
20260903234022 58 96 0.9 2.6 0.01 0.51 0.51 87 1008.9
20260903233523 58 170 0.0 1.7 0.00 0.50 0.50 87 1008.9
20260903233022 58 169 0.9 2.6 0.00 0.50 0.50 87 1008.9
20260903232524 58 168 0.9 3.5 0.00 0.50 0.50 86 1008.9
20260903232023 59 142 0.9 3.5 0.00 0.50 0.50 83 1008.8
20260903231522 59 146 0.9 4.3 0.00 0.50 0.50 83 1008.9
20260903231023 60 174 0.9 4.3 0.00 0.50 0.50 84 1008.8
20260903230522 60 167 0.9 4.3 0.00 0.50 0.50 85 1008.8
20260903230028 60 188 0.9 5.2 0.00 0.50 0.50 86 1008.7
20260903230022 60 179 0.9 4.3 0.00 0.50 0.50 85 1008.7
20260903225023 60 166 1.7 5.2 0.00 0.51 0.50 86 1008.8
20260903224522 60 182 1.7 5.2 0.00 0.51 0.50 89 1008.8
20260903224022 59 152 1.7 7.0 0.00 0.51 0.50 89 1008.9
20260903223520 58 186 1.7 7.0 0.00 0.51 0.50 90 1009.0
20260903223020 58 178 0.9 3.5 0.00 0.51 0.50 90 1009.0
20260903222521 57 155 0.9 3.5 0.00 0.51 0.50 90 1009.1
20260903222022 57 153 0.9 2.6 0.00 0.51 0.50 89 1009.2
20260903221519 57 108 0.9 2.6 0.00 0.51 0.50 89 1009.2
20260903221018 57 134 0.9 3.5 0.00 0.51 0.50 89 1009.2
20260903220518 57 159 0.0 3.5 0.00 0.51 0.50 89 1009.2
20260903220018 56 63 0.0 3.5 0.00 0.51 0.50 89 1009.2
20260903215519 56 61 0.9 3.5 0.00 0.51 0.50 88 1009.2
20260903215022 56 202 0.0 3.5 0.00 0.51 0.50 89 1009.4
20260903215018 56 94 0.9 2.6 0.00 0.51 0.50 89 1009.2
20260903214516 56 144 0.9 3.5 0.00 0.51 0.50 89 1009.3
20260903213518 56 170 0.0 1.7 0.00 0.51 0.50 89 1009.3
20260903213514 56 152 0.0 1.7 0.00 0.51 0.50 88 1009.3
20260903212514 56 173 0.0 1.7 0.00 0.51 0.50 88 1009.4
20260903212014 56 164 0.0 2.6 0.00 0.51 0.50 87 1009.3
20260903211517 56 178 0.0 2.6 0.01 0.51 0.50 89 1009.3
20260903211512 56 171 0.0 2.6 0.01 0.51 0.50 88 1009.1
20260903210509 56 171 0.0 2.6 0.01 0.51 0.50 88 1009.1
20260903210008 56 167 0.9 3.5 0.01 0.51 0.50 89 1009.1
20260903205508 56 165 0.9 3.5 0.01 0.51 0.50 87 1009.2
20260903205008 56 170 0.9 1.7 0.01 0.51 0.50 86 1009.2
20260903204508 56 174 0.0 1.7 0.01 0.51 0.50 87 1009.2
20260903204013 56 174 0.0 3.5 0.01 0.51 0.50 89 1009.4
20260903204009 56 174 0.0 3.5 0.01 0.51 0.50 88 1009.2
20260903203507 56 165 1.7 5.2 0.02 0.51 0.50 86 1009.4
20260903203110 56 186 0.9 5.2 0.01 0.51 0.50 90 1009.4
20260903202619 56 188 1.7 5.2 0.02 0.51 0.50 87 1009.3
20260903201506 57 171 0.9 4.3 0.01 0.50 0.49 88 1009.3
20260903201007 57 76 0.0 3.5 0.02 0.50 0.49 89 1009.3
20260903200512 57 148 0.0 1.7 0.03 0.50 0.49 91 1009.4
20260903200506 57 148 0.0 1.7 0.02 0.50 0.49 90 1009.4
20260903195506 57 55 0.0 4.3 0.03 0.50 0.49 92 1009.4
20260903195006 57 175 0.9 4.3 0.04 0.51 0.49 92 1009.3
20260903194508 57 179 0.9 3.5 0.04 0.51 0.49 93 1009.4
20260903194011 56 163 0.0 3.5 0.05 0.51 0.49 92 1009.3
20260903194006 57 187 0.9 3.5 0.04 0.51 0.49 93 1009.3
20260903193005 56 165 0.0 2.6 0.06 0.51 0.49 92 1009.3
20260903192504 56 163 0.0 2.6 0.06 0.50 0.49 92 1009.4
20260903192010 56 171 0.9 3.5 0.07 0.50 0.48 93 1009.5
20260903192004 56 162 0.0 2.6 0.08 0.51 0.48 92 1009.4
20260903191005 56 165 0.9 3.5 0.07 0.50 0.47 93 1009.5
20260903190504 56 169 1.7 3.5 0.07 0.50 0.47 92 1009.6
20260903190004 56 164 0.9 4.3 0.06 0.49 0.46 92 1009.5
20260903185505 56 170 0.0 4.3 0.06 0.50 0.46 92 1009.5
20260903185004 56 167 0.0 3.5 0.05 0.49 0.45 93 1009.4
20260903184502 56 172 0.9 3.5 0.05 0.49 0.45 92 1009.5
20260903184002 56 167 0.9 4.3 0.05 0.50 0.45 92 1009.6
20260903183502 57 161 1.7 4.3 0.04 0.49 0.44 92 1009.5
20260903183008 57 179 0.9 3.5 0.02 0.48 0.42 92 1009.3
20260903183002 57 171 1.7 4.3 0.03 0.49 0.43 92 1009.4
20260903182002 57 190 0.9 4.3 0.01 0.46 0.41 91 1009.3
20260903181503 57 163 0.9 5.2 0.01 0.47 0.40 91 1009.3
20260903181003 57 172 0.9 5.2 0.01 0.47 0.40 91 1009.2
20260903180501 57 115 0.9 4.3 0.01 0.47 0.40 91 1009.2
20260903180002 57 206 0.9 4.3 0.01 0.48 0.40 91 1009.2
20260903175501 57 176 0.9 4.3 0.01 0.49 0.40 91 1009.2
20260903175001 57 198 0.9 5.2 0.01 0.50 0.40 91 1009.2
20260903174500 57 189 0.9 5.2 0.01 0.51 0.40 90 1009.1
20260903174004 57 167 0.9 5.2 0.01 0.53 0.40 92 1009.2
20260903174000 57 163 0.9 5.2 0.01 0.52 0.40 91 1009.2
20260903173613 57 177 1.7 7.8 0.01 0.53 0.40 91 1009.1
20260903172959 57 147 1.7 7.8 0.01 0.53 0.40 92 1009.1
20260903172000 57 227 2.6 7.0 0.00 0.52 0.40 90 1009.1
20260903171500 57 171 2.6 7.8 0.00 0.52 0.39 90 1009.1
20260903171005 58 99 2.6 10.4 0.01 0.52 0.39 91 1009.1
20260903171001 57 178 2.6 7.8 0.00 0.52 0.39 90 1009.1
20260903170613 58 211 1.7 10.4 0.01 0.52 0.39 92 1009.0
20260903165500 57 184 1.7 6.1 0.01 0.53 0.39 93 1009.0
20260903165000 57 163 1.7 6.1 0.02 0.53 0.39 92 1009.0
20260903164457 57 177 1.7 6.1 0.02 0.53 0.39 92 1009.1
20260903163959 57 156 1.7 6.1 0.04 0.54 0.39 92 1009.1
20260903163503 57 170 0.9 6.1 0.04 0.54 0.39 93 1009.1
20260903163458 57 184 1.7 6.1 0.04 0.54 0.39 93 1009.2
20260903163111 56 169 0.0 2.6 0.06 0.55 0.39 94 1009.3
20260903162459 56 173 0.9 4.3 0.05 0.54 0.39 93 1009.2
20260903161501 56 177 0.9 3.5 0.06 0.55 0.39 93 1009.4
20260903161456 56 69 0.9 3.5 0.06 0.55 0.39 94 1009.3
20260903161109 55 189 0.9 2.6 0.06 0.54 0.38 93 1009.5
20260903160456 55 175 0.9 2.6 0.06 0.54 0.38 93 1009.4
20260903160109 55 157 0.9 1.7 0.08 0.55 0.38 93 1009.5
20260903154954 55 131 0.0 1.7 0.09 0.54 0.38 93 1009.5
20260903154455 55 243 0.0 1.7 0.11 0.54 0.37 93 1009.5
20260903154000 55 21 0.0 1.7 0.10 0.52 0.35 94 1009.7
20260903153955 55 190 0.0 1.7 0.10 0.52 0.35 94 1009.7
20260903152951 55 21 0.0 1.7 0.10 0.52 0.35 93 1009.6
20260903152452 55 165 0.0 1.7 0.10 0.51 0.34 93 1009.6
20260903151950 55 165 0.0 1.7 0.09 0.50 0.33 93 1009.7
20260903151449 55 165 0.0 1.7 0.11 0.50 0.33 95 1009.6
20260903150945 54 165 0.0 1.7 0.12 0.50 0.33 94 1009.6
20260903150451 54 165 0.0 1.7 0.12 0.49 0.32 93 1009.7
20260903150445 54 165 0.0 1.7 0.12 0.49 0.32 94 1009.7
20260903145447 54 165 0.0 1.7 0.10 0.47 0.31 93 1009.7
20260903144946 54 165 0.0 1.7 0.10 0.45 0.28 93 1009.7
20260903144446 54 165 0.0 1.7 0.09 0.43 0.26 93 1009.6
20260903143947 54 165 0.0 1.7 0.09 0.42 0.25 93 1009.6
20260903143451 54 163 0.0 3.5 0.09 0.42 0.25 93 1009.3
20260903143447 54 163 0.0 1.7 0.09 0.42 0.25 93 1009.5
20260903142444 54 163 0.9 3.5 0.08 0.41 0.25 93 1009.4
20260903141943 54 183 0.9 3.5 0.07 0.40 0.23 93 1009.3
20260903141443 54 180 0.9 3.5 0.06 0.39 0.22 93 1009.3
20260903140943 54 157 1.7 5.2 0.05 0.38 0.21 93 1009.2
20260903140449 54 169 1.7 5.2 0.04 0.37 0.20 92 1009.2
20260903140445 54 170 1.7 5.2 0.04 0.37 0.20 93 1009.3
20260903135444 54 165 1.7 5.2 0.04 0.37 0.20 93 1009.1
20260903134941 54 163 1.7 5.2 0.02 0.35 0.18 92 1009.2
20260903134442 54 167 1.7 5.2 0.02 0.34 0.17 92 1009.2
20260903133941 54 170 1.7 6.1 0.01 0.33 0.17 92 1009.0
20260903133441 54 174 2.6 6.1 0.01 0.33 0.16 92 1009.0
20260903132944 54 157 1.7 5.2 0.01 0.33 0.16 93 1008.8
20260903132940 54 180 0.0 3.5 0.01 0.33 0.16 93 1008.7
20260903131940 54 175 0.9 4.3 0.02 0.33 0.16 93 1008.6
20260903131440 54 161 0.9 4.3 0.02 0.33 0.16 93 1008.8
20260903130939 54 171 0.0 2.6 0.03 0.33 0.16 93 1008.8
20260903130437 54 203 0.0 2.6 0.04 0.33 0.16 93 1008.7
20260903125940 54 165 0.0 1.7 0.08 0.33 0.16 93 1008.8
20260903125936 54 170 0.0 1.7 0.06 0.33 0.16 93 1008.7
20260903125549 54 163 0.0 2.6 0.12 0.32 0.15 93 1008.9
20260903124935 54 164 0.0 1.7 0.12 0.33 0.16 93 1008.9
20260903123937 54 167 0.0 2.6 0.13 0.32 0.15 93 1008.8
20260903123435 54 134 0.0 1.7 0.13 0.32 0.15 92 1008.8
20260903122935 54 130 0.0 1.7 0.13 0.32 0.15 92 1008.9
20260903122436 54 175 0.0 1.7 0.13 0.32 0.15 92 1009.0
20260903121935 54 169 0.0 1.7 0.12 0.31 0.14 92 1009.0
20260903121440 54 148 0.0 1.7 0.12 0.30 0.13 92 1009.1
20260903121436 54 169 0.0 1.7 0.13 0.31 0.14 92 1009.0
20260903120433 54 179 0.0 1.7 0.11 0.29 0.13 92 1009.1
20260903115933 54 178 0.9 4.3 0.09 0.27 0.11 92 1009.2
20260903115435 54 178 0.9 4.3 0.07 0.25 0.08 91 1009.2
20260903114938 55 179 2.6 5.2 0.02 0.20 0.03 91 1009.3
20260903114933 54 171 2.6 5.2 0.03 0.21 0.05 91 1009.2
20260903113933 55 163 1.7 4.3 0.01 0.19 0.02 91 1009.1
20260903113432 55 165 0.9 4.3 0.01 0.19 0.02 91 1009.1
20260903112931 55 167 1.7 4.3 0.01 0.19 0.02 90 1009.0
20260903112438 54 174 0.9 2.6 0.00 0.18 0.01 91 1009.1
20260903112431 55 173 1.7 4.3 0.01 0.19 0.02 91 1009.0
20260903111931 54 180 0.9 2.6 0.01 0.19 0.02 91 1009.0
20260903110933 54 183 0.0 2.6 0.00 0.18 0.01 91 1008.9
20260903110431 54 180 0.9 2.6 0.00 0.18 0.01 91 1008.9
20260903105932 54 172 0.0 2.6 0.00 0.18 0.01 91 1008.9
20260903105433 54 168 0.0 2.6 0.00 0.18 0.01 90 1008.9
20260903104931 54 168 0.9 3.5 0.00 0.18 0.01 91 1009.0
20260903104430 55 166 0.9 3.5 0.00 0.18 0.01 90 1009.1
20260903103931 55 169 1.7 3.5 0.00 0.18 0.01 90 1009.0
20260903103429 55 172 0.9 3.5 0.00 0.18 0.01 90 1008.9
20260903102929 55 175 0.9 2.6 0.00 0.18 0.01 90 1009.1
20260903102431 55 186 0.9 1.7 0.00 0.18 0.01 90 1009.0
20260903101929 55 171 0.9 2.6 0.00 0.18 0.01 90 1009.1
20260903101429 55 173 0.9 2.6 0.00 0.18 0.01 90 1009.0
20260903100929 55 172 0.9 2.6 0.00 0.18 0.01 90 1009.0
20260903100435 55 165 0.9 3.5 0.00 0.18 0.01 90 1009.1
20260903100430 55 175 0.9 3.5 0.00 0.18 0.01 90 1009.0
20260903095428 55 171 0.9 4.3 0.00 0.18 0.01 90 1009.1
20260903094927 55 169 0.9 4.3 0.00 0.18 0.01 90 1009.1
20260903094427 55 171 0.9 3.5 0.00 0.18 0.01 89 1009.1
20260903093927 55 171 0.9 3.5 0.00 0.18 0.01 89 1009.0
20260903093427 55 169 1.7 3.5 0.01 0.18 0.01 89 1009.1
20260903092927 55 168 1.7 3.5 0.01 0.18 0.01 89 1009.1
20260903092429 55 180 1.7 4.3 0.01 0.18 0.01 89 1009.1
20260903091927 55 178 1.7 4.3 0.01 0.18 0.01 89 1009.0
20260903091433 55 173 1.7 5.2 0.01 0.18 0.01 89 1009.1
20260903091429 55 180 1.7 5.2 0.01 0.18 0.01 89 1009.1